User: anonymous   Login
Location: Unspecified
(0.0000°N, 0.0000°E)
Time: 15:45:06
(UTC+00:00)
Language:

Optus B3 - Orbit

View from above orbital plane
View from above orbital plane
View from above satellite
View from above satellite

Ground track
Ground track

The orbit data is extracted from the following two-line orbital elements,

1 23227U 94055A   14331.58206476 -.00000080  00000-0  00000+0 0  6040
2 23227 005.8322 057.7614 0006790 177.5988 204.8137 01.00271852 74131
Epoch (UTC): 27 November 2014 13:58:10
Eccentricity: 0.0006790
inclination: 5.8322°
perigee height: 35757 km
apogee height: 35815 km
right ascension of ascending node: 57.7614°
argument of perigee: 177.5988°
revolutions per day: 1.00271852
mean anomaly at epoch: 204.8137°
orbit number at epoch: 7413

The dashed part of the orbit path shows where the satellite is in the earth's shadow,  

DLR